User: anonymous
Location: Coleman
(45.0650°N, 88.0340°W)
Time: 16:00:37
(UTC-05:00)
Language:

Iridium 97 - Orbit

View from above orbital plane
View from above orbital plane
View from above satellite
View from above satellite

Ground track
Ground track

The orbit data is extracted from the following two-line orbital elements,

1 27450U 02031A   14244.47466555  .00000194  00000-0  62382-4 0  3444
2 27450 086.3979 025.1378 0001410 080.2231 279.9124 14.34221325644072
Epoch (UTC): 01 September 2014 11:23:31
Eccentricity: 0.0001410
inclination: 86.3979°
perigee height: 776 km
apogee height: 778 km
right ascension of ascending node: 25.1378°
argument of perigee: 80.2231°
revolutions per day: 14.34221325
mean anomaly at epoch: 279.9124°
orbit number at epoch: 64407

The dashed part of the orbit path shows where the satellite is in the earth's shadow,  

DLR